Latest Weather Observations for Cape Otway

IDV60801

Issued at 5:35 pm EDT Friday 31 October 2014 (issued every 30 minutes, with the page automatically refreshed every 10 minutes)

About weather observations | Map of weather stations | Latest weather observations for VIC | Other Formats
Station Details ID: 090015 Name: CAPE OTWAY LIGHTHOUSE Lat: -38.86 Lon: 143.51 Height: 82.0 m
Data from the previous 72 hours. | See also: Recent months at Cape Otway
Date/Time
EDT
Temp
°C
App
Temp
°C
Dew
Point
Rel
Hum
%
Delta-T
°C
Wind Press
QNH
hPa
Press
MSL
hPa
Rain
since 9 am
mm
Dir
 
Spd
km/h
Gust
km/h
Spd
kts
Gust
kts
31/05:30pm 29.9 24.1 2.5 17 13.8 NNW 22 33 12 18 997.7 - 0.0
31/05:00pm 28.7 23.4 2.8 19 13.0 NW 20 37 11 20 998.3 - 0.0
31/04:30pm 29.4 23.6 2.1 17 13.5 NNW 22 37 12 20 998.7 - 0.0
31/04:00pm 28.1 22.6 1.9 18 12.8 NW 20 35 11 19 999.2 - 0.0
31/03:30pm 28.3 22.9 2.3 18 12.8 NNW 20 39 11 21 999.8 - 0.0
31/03:08pm 28.4 21.1 0.1 16 13.4 NNW 28 46 15 25 999.9 - 0.0
31/03:00pm 29.1 22.1 2.1 17 13.4 NNW 28 46 15 25 1000.1 1000.1 0.0
31/02:56pm 28.6 21.4 1.0 17 13.3 NNW 28 46 15 25 1000.1 - 0.0
31/02:51pm 28.5 21.4 1.6 17 13.1 NNW 28 48 15 26 1000.1 - 0.0
31/02:30pm 27.3 22.1 7.2 28 10.7 N 24 43 13 23 1000.5 - 0.0
31/02:00pm 29.0 23.7 8.3 27 11.4 N 26 43 14 23 1001.0 - 0.0
31/01:30pm 27.3 21.8 7.4 28 10.7 N 26 43 14 23 1001.7 - 0.0
31/01:00pm 27.6 22.9 7.6 28 10.8 N 22 35 12 19 1002.3 - 0.0
31/12:30pm 25.0 20.4 6.7 31 9.6 N 20 35 11 19 1003.4 - 0.0
31/12:00pm 22.9 17.3 5.5 32 8.8 N 24 39 13 21 1003.9 1003.8 0.0
31/11:30am 22.9 18.1 5.5 32 8.8 N 20 33 11 18 1004.3 - 0.0
31/11:26am 22.4 17.7 5.9 34 8.4 N 20 35 11 19 1004.3 - 0.0
31/11:00am 17.2 16.0 11.5 69 3.1 ESE 9 11 5 6 1005.0 - 0.0
31/10:30am 16.5 14.9 11.6 73 2.7 E 11 15 6 8 1005.2 - 0.0
31/10:00am 17.1 15.0 11.0 67 3.3 ENE 13 17 7 9 1005.9 - 0.0
31/09:30am 16.1 14.7 8.9 62 3.7 ESE 6 7 3 4 1006.6 - 0.0
31/09:00am 14.6 13.8 9.6 72 2.6 ENE 4 7 2 4 1007.1 1007.1 0.0
31/08:30am 13.6 12.3 9.9 78 1.9 E 7 11 4 6 1007.5 - 0.0
31/08:00am 12.6 11.8 9.7 82 1.5 E 4 7 2 4 1007.7 - 0.0
31/07:30am 11.5 10.1 8.9 84 1.3 E 6 9 3 5 1007.8 - 0.0
31/07:00am 11.2 8.1 8.8 85 1.2 ENE 15 20 8 11 1007.7 - 0.0
31/06:30am 11.3 7.8 8.7 84 1.3 NE 17 22 9 12 1008.4 - 0.0
31/06:00am 11.1 8.0 8.7 85 1.2 NE 15 20 8 11 1009.0 1009.0 0.0
31/05:30am 10.6 6.9 8.1 84 1.2 NE 17 24 9 13 1009.1 - 0.0
31/05:00am 10.1 7.2 8.0 87 1.0 NNE 13 17 7 9 1009.6 - 0.0
31/04:30am 10.2 6.2 8.2 87 1.0 N 19 22 10 12 1009.9 - 0.0
31/04:00am 9.7 5.9 7.6 87 1.0 N 17 20 9 11 1010.5 - 0.0
31/03:30am 9.6 6.6 7.5 87 1.0 N 13 17 7 9 1010.8 - 0.0
31/03:00am 9.8 6.8 7.7 87 1.0 N 13 15 7 8 1011.3 1011.3 0.0
31/02:30am 9.9 6.9 7.8 87 1.0 N 13 15 7 8 1011.6 - 0.0
31/02:00am 10.1 7.2 8.0 87 1.0 N 13 15 7 8 1011.7 - 0.0
31/01:30am 10.8 8.3 8.1 83 1.3 N 11 13 6 7 1012.1 - 0.0
31/01:00am 11.5 9.1 8.7 83 1.4 N 11 13 6 7 1012.7 - 0.0
31/12:30am 11.7 9.3 8.7 82 1.5 NNW 11 13 6 7 1013.4 - 0.0
31/12:00am 13.4 10.3 8.9 74 2.3 W 15 22 8 12 1013.6 1013.6 0.0
 
Date/Time
EDT
Temp
°C
App
Temp
°C
Dew
Point
Rel
Hum
%
Delta-T
°C
Wind Press
QNH
hPa
Press
MSL
hPa
Rain
since 9 am
mm
Dir
 
Spd
km/h
Gust
km/h
Spd
kts
Gust
kts
30/11:30pm 13.3 9.7 8.5 72 2.4 W 17 24 9 13 1013.8 - 0.0
30/11:00pm 12.9 9.2 8.1 72 2.4 W 17 24 9 13 1013.8 - 0.0
30/10:30pm 13.2 10.3 9.5 78 1.9 W 15 20 8 11 1013.7 - 0.0
30/10:00pm 13.2 9.8 9.1 76 2.1 W 17 24 9 13 1014.0 - 0.0
30/09:30pm 13.0 9.2 9.0 77 2.0 W 19 26 10 14 1013.8 - 0.0
30/09:00pm 13.0 9.6 9.1 77 2.0 W 17 20 9 11 1013.5 1013.5 0.0
30/08:30pm 13.0 9.6 9.3 78 1.9 W 17 20 9 11 1013.5 - 0.0
30/08:00pm 13.3 10.0 9.4 77 2.0 W 17 20 9 11 1013.4 - 0.0
30/07:30pm 13.7 9.9 9.2 74 2.3 W 19 26 10 14 1013.2 - 0.0
30/07:00pm 14.3 10.5 9.2 71 2.6 W 19 26 10 14 1013.2 - 0.0
30/06:30pm 14.2 10.1 8.7 69 2.8 W 20 30 11 16 1013.2 - 0.0
30/06:00pm 14.7 9.5 9.0 68 2.9 W 26 32 14 17 1013.4 1013.3 0.0
30/05:30pm 14.7 9.9 8.8 68 3.0 W 24 33 13 18 1013.4 - 0.0
30/05:00pm 14.9 9.4 9.0 68 3.0 W 28 37 15 20 1013.5 - 0.0
30/04:30pm 15.0 10.1 9.8 71 2.7 W 26 35 14 19 1013.6 - 0.0
30/04:00pm 15.7 11.6 10.2 70 2.9 W 22 35 12 19 1013.6 - 0.0
30/03:30pm 15.7 10.9 10.4 71 2.8 W 26 35 14 19 1013.6 - 0.0
30/03:00pm 15.7 10.8 9.8 68 3.1 W 26 35 14 19 1013.9 1014.0 0.0
30/02:30pm 15.0 10.9 10.0 72 2.6 W 22 32 12 17 1014.3 - 0.0
30/02:00pm 13.9 7.6 9.6 75 2.2 W 33 46 18 25 1014.3 - 0.0
30/01:30pm 15.0 9.6 9.4 69 2.9 W 28 37 15 20 1014.0 - 0.0
30/01:00pm 14.7 10.5 9.7 72 2.6 W 22 35 12 19 1014.1 - 0.0
30/12:30pm 14.9 9.2 8.4 65 3.3 W 28 37 15 20 1014.5 - 0.0
30/12:00pm 14.6 9.2 8.0 64 3.3 W 26 33 14 18 1014.6 1014.6 0.0
30/11:30am 14.5 9.5 9.5 72 2.6 W 26 39 14 21 1014.9 - 0.0
30/11:00am 14.8 8.9 7.6 62 3.6 W 28 37 15 20 1014.7 - 0.0
30/10:30am 14.5 9.5 8.1 65 3.2 W 24 37 13 20 1014.5 - 0.0
30/10:00am 14.1 8.8 6.7 61 3.6 W 24 32 13 17 1015.0 - 0.0
30/09:30am 13.8 7.3 6.6 62 3.5 W 30 41 16 22 1015.0 - 0.0
30/09:00am 13.9 8.0 7.6 66 3.1 W 28 37 15 20 1014.9 1014.8 0.0
30/08:30am 13.5 9.5 8.1 70 2.7 W 19 30 10 16 1014.7 - 0.0
30/08:00am 13.5 8.0 7.6 67 2.9 W 26 35 14 19 1014.5 - 0.0
30/07:30am 13.6 8.0 7.3 65 3.1 W 26 37 14 20 1014.0 - 0.0
30/07:00am 13.3 7.6 6.9 65 3.1 W 26 37 14 20 1013.9 - 0.0
30/06:30am 13.3 7.0 7.6 68 2.8 WSW 30 43 16 23 1014.1 - 0.0
30/06:00am 13.3 7.7 7.1 66 3.0 W 26 35 14 19 1013.5 1013.5 0.0
30/05:30am 12.9 6.4 6.7 66 3.0 W 30 46 16 25 1013.6 - 0.0
30/05:00am 13.1 7.1 8.7 74 2.2 W 30 41 16 22 1013.2 - 0.0
30/04:30am 13.3 8.7 8.3 72 2.5 W 22 33 12 18 1013.3 - 0.0
30/04:00am 13.3 8.5 9.0 75 2.2 W 24 35 13 19 1013.8 - 0.0
30/03:30am 13.5 8.2 8.3 71 2.6 W 26 37 14 20 1013.7 - 0.0
30/03:00am 13.5 7.4 8.1 70 2.7 W 30 39 16 21 1013.8 1013.8 0.0
30/02:30am 13.5 6.9 7.8 68 2.8 W 32 43 17 23 1013.9 - 0.0
30/02:00am 13.4 7.2 8.0 70 2.7 W 30 44 16 24 1014.0 - 0.0
30/01:30am 13.1 7.3 9.4 78 1.9 W 30 41 16 22 1014.3 - 0.0
30/01:00am 13.5 7.6 9.0 74 2.3 W 30 37 16 20 1014.6 - 0.0
30/12:30am 13.3 7.5 9.4 77 2.0 W 30 39 16 21 1014.9 - 0.0
30/12:00am 13.5 6.4 8.1 70 2.7 W 35 50 19 27 1015.1 1015.2 0.0
 
Date/Time
EDT
Temp
°C
App
Temp
°C
Dew
Point
Rel
Hum
%
Delta-T
°C
Wind Press
QNH
hPa
Press
MSL
hPa
Rain
since 9 am
mm
Dir
 
Spd
km/h
Gust
km/h
Spd
kts
Gust
kts
29/11:30pm 13.7 7.0 9.6 76 2.1 W 35 46 19 25 1015.3 - 0.0
29/11:00pm 13.4 7.5 10.5 82 1.5 W 32 43 17 23 1015.4 - 0.0
29/10:30pm 13.4 8.3 10.5 82 1.5 W 28 43 15 23 1015.8 - 0.0
29/10:17pm 13.4 7.8 10.1 80 1.7 W 30 48 16 26 1015.7 - 0.0
29/10:15pm 13.4 7.8 10.1 80 1.7 W 30 48 16 26 1015.7 - 0.0
29/10:00pm 13.3 8.1 10.4 82 1.5 WNW 28 39 15 21 1015.7 - 0.0
29/09:30pm 13.3 7.3 10.8 85 1.3 W 33 44 18 24 1015.9 - 0.0
29/09:00pm 13.2 7.2 10.7 85 1.3 W 33 44 18 24 1015.7 1015.7 0.0
29/08:30pm 14.0 8.6 10.8 81 1.7 W 30 43 16 23 1015.5 - 0.0
29/08:00pm 13.9 9.2 10.7 81 1.7 WNW 26 35 14 19 1015.5 - 0.0
29/07:30pm 13.9 9.2 10.5 80 1.8 WNW 26 37 14 20 1015.4 - 0.0
29/07:00pm 13.9 9.5 10.5 80 1.8 WNW 24 37 13 20 1015.3 - 0.0
29/06:30pm 14.1 8.6 10.7 80 1.8 W 30 43 16 23 1015.3 - 0.0
29/06:00pm 15.2 9.3 10.5 73 2.5 W 32 41 17 22 1015.3 1015.4 0.0
29/05:30pm 15.2 9.3 10.3 72 2.6 W 32 39 17 21 1015.4 - 0.0
29/05:00pm 15.4 9.4 10.1 70 2.8 W 32 41 17 22 1015.3 - 0.0
29/04:30pm 15.5 9.5 10.2 70 2.8 W 32 43 17 23 1015.3 - 0.0
29/04:00pm 14.6 9.4 10.2 75 2.3 W 28 39 15 21 1015.7 - 0.0
29/03:30pm 14.7 8.0 9.5 71 2.7 W 35 44 19 24 1015.8 - 0.0
29/03:00pm 15.1 8.9 9.5 69 2.9 W 32 43 17 23 1015.9 1016.0 0.0
29/02:30pm 15.5 10.5 9.5 67 3.1 W 26 39 14 21 1016.1 - 0.0
29/02:00pm 15.8 10.8 9.4 65 3.3 W 26 39 14 21 1016.3 - 0.0
29/01:30pm 14.9 9.9 9.5 70 2.8 W 26 39 14 21 1016.4 - 0.0
29/01:00pm 14.3 9.8 10.1 76 2.2 WNW 24 33 13 18 1016.6 - 0.0
29/12:30pm 13.6 9.1 10.1 79 1.8 WNW 24 33 13 18 1016.8 - 0.0
29/12:00pm 12.4 6.9 10.7 89 0.9 W 30 39 16 21 1017.1 1017.1 0.0
29/11:30am 13.7 9.0 9.4 75 2.2 WNW 24 35 13 19 1017.3 - 0.0
29/11:00am 13.7 9.6 8.7 72 2.5 NW 20 41 11 22 1017.3 - 0.0
29/10:30am 14.0 8.1 7.5 65 3.2 W 28 37 15 20 1017.2 - 0.0
29/10:00am 13.4 8.7 7.9 69 2.7 WNW 22 32 12 17 1017.3 - 0.0
29/09:30am 13.1 8.4 7.8 70 2.6 NW 22 44 12 24 1017.3 - 0.0
29/09:00am 13.1 7.4 6.9 66 3.0 W 26 37 14 20 1017.3 1017.3 0.0
29/08:30am 12.9 6.3 6.2 64 3.2 W 30 43 16 23 1017.4 - 0.0
29/08:00am 12.7 6.9 6.2 64 3.1 W 26 41 14 22 1017.3 - 0.0
29/07:30am 12.8 6.7 6.5 65 3.0 W 28 37 15 20 1017.2 - 0.0
29/07:00am 12.5 7.6 8.5 76 2.0 W 24 37 13 20 1017.0 - 0.0
29/06:30am 12.5 6.5 6.9 68 2.7 W 28 35 15 19 1016.7 - 0.0
29/06:00am 12.5 6.4 6.4 66 2.9 W 28 35 15 19 1016.4 1016.3 0.0
29/05:30am 12.5 6.2 5.9 64 3.1 W 28 37 15 20 1016.2 - 0.0
29/05:00am 12.1 5.0 5.7 65 3.0 W 32 41 17 22 1016.1 - 0.0
29/04:30am 12.3 5.2 5.4 63 3.2 W 32 41 17 22 1015.9 - 0.0
29/04:00am 12.5 7.1 8.0 74 2.2 W 26 35 14 19 1016.0 - 0.0
29/03:30am 12.5 7.4 7.8 73 2.3 W 24 33 13 18 1016.1 - 0.0
29/03:00am 12.5 7.0 7.6 72 2.4 W 26 35 14 19 1016.1 1016.1 0.0
29/02:30am 12.5 7.0 7.4 71 2.5 W 26 35 14 19 1016.2 - 0.0
29/02:00am 12.2 6.6 7.2 71 2.4 WSW 26 39 14 21 1016.3 - 0.0
29/01:30am 11.7 5.6 8.2 79 1.7 W 30 44 16 24 1016.7 - 0.0
29/01:00am 12.4 6.9 7.5 72 2.4 W 26 37 14 20 1016.8 - 0.0
29/12:30am 12.4 6.3 6.5 67 2.8 W 28 39 15 21 1016.9 - 0.0
29/12:15am 12.6 6.7 7.5 71 2.5 W 28 46 15 25 1016.9 - 0.0
29/12:14am 12.5 6.6 7.6 72 2.4 W 28 46 15 25 1016.8 - 0.0
29/12:00am 12.5 6.4 6.7 68 2.8 WSW 28 46 15 25 1016.9 1016.9 0.0
 
Date/Time
EDT
Temp
°C
App
Temp
°C
Dew
Point
Rel
Hum
%
Delta-T
°C
Wind Press
QNH
hPa
Press
MSL
hPa
Rain
since 9 am
mm
Dir
 
Spd
km/h
Gust
km/h
Spd
kts
Gust
kts
28/11:51pm 12.5 6.4 6.7 68 2.8 WSW 28 46 15 25 1016.9 - 0.0
28/11:49pm 12.5 6.4 6.7 68 2.8 WSW 28 46 15 25 1016.9 - 0.0
28/11:30pm 12.5 6.0 6.7 68 2.8 W 30 43 16 23 1016.8 - 0.0
28/11:00pm 12.7 6.7 6.9 68 2.8 W 28 39 15 21 1016.6 - 0.0
28/10:30pm 12.6 6.1 6.5 66 2.9 W 30 44 16 24 1016.6 - 0.0
28/10:00pm 12.7 6.3 6.9 68 2.8 W 30 44 16 24 1016.6 - 0.0
28/09:30pm 12.6 5.0 5.8 63 3.2 W 35 48 19 26 1016.5 - 0.0
28/09:00pm 12.6 4.3 6.0 64 3.1 W 39 50 21 27 1016.2 1016.2 0.0
28/08:30pm 12.4 3.8 4.5 58 3.6 W 39 52 21 28 1015.8 - 0.0
28/08:00pm 12.4 5.4 7.0 69 2.6 W 33 44 18 24 1015.5 - 0.0
28/07:42pm 12.4 4.1 6.3 66 2.9 W 39 57 21 31 1015.1 - 0.0
28/07:41pm 12.4 4.1 6.1 65 3.0 W 39 57 21 31 1015.2 - 0.0
28/07:30pm 12.5 3.8 6.2 65 3.0 W 41 54 22 29 1014.9 - 0.0
28/07:00pm 12.6 4.4 6.5 66 2.9 W 39 59 21 32 1014.5 - 0.0
28/06:40pm 12.8 5.7 7.9 72 2.4 W 35 54 19 29 1014.2 - 0.0
28/06:38pm 12.8 5.7 7.9 72 2.4 W 35 54 19 29 1014.2 - 0.0
28/06:30pm 13.0 5.1 7.7 70 2.6 W 39 54 21 29 1014.1 - 0.0
28/06:15pm 13.0 5.3 7.0 67 2.9 W 37 57 20 31 1013.8 - 0.0
28/06:14pm 13.3 6.1 7.8 69 2.7 W 35 54 19 29 1013.9 - 0.0
28/06:00pm 13.1 4.2 6.9 66 3.0 W 43 59 23 32 1013.9 1013.9 0.0

Other Formats:

Comma delimited format used in spreadsheet applications
http://www.bom.gov.au/fwo/IDV60801/IDV60801.94842.axf

JavaScript Object Notation format (JSON) in row-major order
http://www.bom.gov.au/fwo/IDV60801/IDV60801.94842.json